Year,Month,Day,Hour,Minute,Value (Times are PST for temperature in C)
2017,08,15,00,00,16.10
2017,08,15,00,01,16.10
2017,08,15,00,02,16.10
2017,08,15,00,03,16.10
2017,08,15,00,04,16.10
2017,08,15,00,05,16.10
2017,08,15,00,06,16.00
2017,08,15,00,07,16.00
2017,08,15,00,08,16.00
2017,08,15,00,09,16.00
2017,08,15,00,10,16.00
2017,08,15,00,11,16.00
2017,08,15,00,12,16.00
2017,08,15,00,13,16.00
2017,08,15,00,14,15.90
2017,08,15,00,15,15.90
2017,08,15,00,16,15.90
2017,08,15,00,17,15.90
2017,08,15,00,18,15.90
2017,08,15,00,19,15.90
2017,08,15,00,20,15.90
2017,08,15,00,21,15.90
2017,08,15,00,22,15.90
2017,08,15,00,23,15.90
2017,08,15,00,24,15.90
2017,08,15,00,25,15.90
2017,08,15,00,26,15.80
2017,08,15,00,27,15.80
2017,08,15,00,28,15.80
2017,08,15,00,29,15.80
2017,08,15,00,30,15.80
2017,08,15,00,31,15.90
2017,08,15,00,32,15.90
2017,08,15,00,33,15.90
2017,08,15,00,34,15.90
2017,08,15,00,35,15.90
2017,08,15,00,36,15.90
2017,08,15,00,37,15.90
2017,08,15,00,38,15.90
2017,08,15,00,39,15.90
2017,08,15,00,40,15.90
2017,08,15,00,41,15.90
2017,08,15,00,42,15.90
2017,08,15,00,43,16.00
2017,08,15,00,44,15.90
2017,08,15,00,45,15.90
2017,08,15,00,46,16.00
2017,08,15,00,47,16.00
2017,08,15,00,48,16.00
2017,08,15,00,49,16.00
2017,08,15,00,50,16.00
2017,08,15,00,51,16.10
2017,08,15,00,52,16.10
2017,08,15,00,53,16.10
2017,08,15,00,54,16.10
2017,08,15,00,55,16.20
2017,08,15,00,56,16.20
2017,08,15,00,57,16.20
2017,08,15,00,58,16.20
2017,08,15,00,59,16.30
2017,08,15,01,00,16.30
2017,08,15,01,01,16.30
2017,08,15,01,02,16.30
2017,08,15,01,03,16.30
2017,08,15,01,04,16.30
2017,08,15,01,05,16.30
2017,08,15,01,06,16.30
2017,08,15,01,07,16.30
2017,08,15,01,08,16.30
2017,08,15,01,09,16.30
2017,08,15,01,10,16.30
2017,08,15,01,11,16.30
2017,08,15,01,12,16.30
2017,08,15,01,13,16.30
2017,08,15,01,14,16.30
2017,08,15,01,15,16.30
2017,08,15,01,16,16.30
2017,08,15,01,17,16.30
2017,08,15,01,18,16.30
2017,08,15,01,19,16.30
2017,08,15,01,20,16.30
2017,08,15,01,21,16.30
2017,08,15,01,22,16.30
2017,08,15,01,23,16.30
2017,08,15,01,24,16.30
2017,08,15,01,25,16.20
2017,08,15,01,26,16.20
2017,08,15,01,27,16.20
2017,08,15,01,28,16.20
2017,08,15,01,29,16.20
2017,08,15,01,30,16.20
2017,08,15,01,31,16.20
2017,08,15,01,32,16.20
2017,08,15,01,33,16.20
2017,08,15,01,34,16.20
2017,08,15,01,35,16.20
2017,08,15,01,36,16.20
2017,08,15,01,37,16.20
2017,08,15,01,38,16.20
2017,08,15,01,39,16.20
2017,08,15,01,40,16.10
2017,08,15,01,41,16.10
2017,08,15,01,42,16.10
2017,08,15,01,43,16.10
2017,08,15,01,44,16.10
2017,08,15,01,45,16.10
2017,08,15,01,46,16.10
2017,08,15,01,47,16.10
2017,08,15,01,48,16.00
2017,08,15,01,49,16.00
2017,08,15,01,50,16.00
2017,08,15,01,51,16.00
2017,08,15,01,52,15.90
2017,08,15,01,53,15.90
2017,08,15,01,54,15.90
2017,08,15,01,55,15.90
2017,08,15,01,56,15.90
2017,08,15,01,57,15.90
2017,08,15,01,58,15.90
2017,08,15,01,59,15.90
2017,08,15,02,00,15.90
2017,08,15,02,01,15.80
2017,08,15,02,02,15.80
2017,08,15,02,03,15.80
2017,08,15,02,04,15.80
2017,08,15,02,05,15.80
2017,08,15,02,06,15.80
2017,08,15,02,07,15.80
2017,08,15,02,08,15.80
2017,08,15,02,09,15.80
2017,08,15,02,10,15.80
2017,08,15,02,11,15.80
2017,08,15,02,12,15.80
2017,08,15,02,13,15.80
2017,08,15,02,14,15.80
2017,08,15,02,15,15.80
2017,08,15,02,16,15.80
2017,08,15,02,17,15.80
2017,08,15,02,18,15.70
2017,08,15,02,19,15.70
2017,08,15,02,20,15.70
2017,08,15,02,21,15.70
2017,08,15,02,22,15.70
2017,08,15,02,23,15.70
2017,08,15,02,24,15.70
2017,08,15,02,25,15.70
2017,08,15,02,26,15.70
2017,08,15,02,27,15.70
2017,08,15,02,28,15.70
2017,08,15,02,29,15.70
2017,08,15,02,30,15.70
2017,08,15,02,31,15.60
2017,08,15,02,32,15.60
2017,08,15,02,33,15.60
2017,08,15,02,34,15.60
2017,08,15,02,35,15.60
2017,08,15,02,36,15.60
2017,08,15,02,37,15.60
2017,08,15,02,38,15.60
2017,08,15,02,39,15.60
2017,08,15,02,40,15.60
2017,08,15,02,41,15.60
2017,08,15,02,42,15.60
2017,08,15,02,43,15.60
2017,08,15,02,44,15.60
2017,08,15,02,45,15.60
2017,08,15,02,46,15.60
2017,08,15,02,47,15.60
2017,08,15,02,48,15.60
2017,08,15,02,49,15.60
2017,08,15,02,50,15.60
2017,08,15,02,51,15.60
2017,08,15,02,52,15.60
2017,08,15,02,53,15.60
2017,08,15,02,54,15.60
2017,08,15,02,55,15.60
2017,08,15,02,56,15.60
2017,08,15,02,57,15.60
2017,08,15,02,58,15.60
2017,08,15,02,59,15.60
2017,08,15,03,00,15.60
2017,08,15,03,01,15.60
2017,08,15,03,02,15.60
2017,08,15,03,03,15.60
2017,08,15,03,04,15.60
2017,08,15,03,05,15.60
2017,08,15,03,06,15.60
2017,08,15,03,07,15.60
2017,08,15,03,08,15.70
2017,08,15,03,09,15.70
2017,08,15,03,10,15.70
2017,08,15,03,11,15.60
2017,08,15,03,12,15.60
2017,08,15,03,13,15.60
2017,08,15,03,14,15.60
2017,08,15,03,15,15.60
2017,08,15,03,16,15.60
2017,08,15,03,17,15.60
2017,08,15,03,18,15.60
2017,08,15,03,19,15.50
2017,08,15,03,20,15.50
2017,08,15,03,21,15.60
2017,08,15,03,22,15.60
2017,08,15,03,23,15.50
2017,08,15,03,24,15.50
2017,08,15,03,25,15.60
2017,08,15,03,26,15.60
2017,08,15,03,27,15.60
2017,08,15,03,28,15.50
2017,08,15,03,29,15.50
2017,08,15,03,30,15.50
2017,08,15,03,31,15.50
2017,08,15,03,32,15.50
2017,08,15,03,33,15.50
2017,08,15,03,34,15.50
2017,08,15,03,35,15.50
2017,08,15,03,36,15.50
2017,08,15,03,37,15.50
2017,08,15,03,38,15.50
2017,08,15,03,39,15.50
2017,08,15,03,40,15.40
2017,08,15,03,41,15.40
2017,08,15,03,42,15.40
2017,08,15,03,43,15.40
2017,08,15,03,44,15.40
2017,08,15,03,45,15.40
2017,08,15,03,46,15.40
2017,08,15,03,47,15.40
2017,08,15,03,48,15.40
2017,08,15,03,49,15.40
2017,08,15,03,50,15.40
2017,08,15,03,51,15.40
2017,08,15,03,52,15.30
2017,08,15,03,53,15.30
2017,08,15,03,54,15.30
2017,08,15,03,55,15.30
2017,08,15,03,56,15.30
2017,08,15,03,57,15.30
2017,08,15,03,58,15.30
2017,08,15,03,59,15.30
2017,08,15,04,00,15.30
2017,08,15,04,01,15.30
2017,08,15,04,02,15.30
2017,08,15,04,03,15.30
2017,08,15,04,04,15.30
2017,08,15,04,05,15.30
2017,08,15,04,06,15.30
2017,08,15,04,07,15.30
2017,08,15,04,08,15.20
2017,08,15,04,09,15.20
2017,08,15,04,10,15.30
2017,08,15,04,11,15.30
2017,08,15,04,12,15.30
2017,08,15,04,13,15.30
2017,08,15,04,14,15.30
2017,08,15,04,15,15.30
2017,08,15,04,16,15.30
2017,08,15,04,17,15.30
2017,08,15,04,18,15.30
2017,08,15,04,19,15.30
2017,08,15,04,20,15.30
2017,08,15,04,21,15.30
2017,08,15,04,22,15.20
2017,08,15,04,23,15.20
2017,08,15,04,24,15.20
2017,08,15,04,25,15.20
2017,08,15,04,26,15.20
2017,08,15,04,27,15.20
2017,08,15,04,28,15.20
2017,08,15,04,29,15.10
2017,08,15,04,30,15.10
2017,08,15,04,31,15.10
2017,08,15,04,32,15.00
2017,08,15,04,33,15.00
2017,08,15,04,34,14.90
2017,08,15,04,35,14.90
2017,08,15,04,36,14.90
2017,08,15,04,37,14.90
2017,08,15,04,38,14.90
2017,08,15,04,39,14.90
2017,08,15,04,40,14.80
2017,08,15,04,41,14.80
2017,08,15,04,42,14.80
2017,08,15,04,43,14.80
2017,08,15,04,44,14.80
2017,08,15,04,45,14.80
2017,08,15,04,46,14.80
2017,08,15,04,47,14.70
2017,08,15,04,48,14.70
2017,08,15,04,49,14.70
2017,08,15,04,50,14.70
2017,08,15,04,51,14.70
2017,08,15,04,52,14.70
2017,08,15,04,53,14.70
2017,08,15,04,54,14.70
2017,08,15,04,55,14.70
2017,08,15,04,56,14.70
2017,08,15,04,57,14.60
2017,08,15,04,58,14.60
2017,08,15,04,59,14.60
2017,08,15,05,00,14.60
2017,08,15,05,01,14.60
2017,08,15,05,02,14.60
2017,08,15,05,03,14.60
2017,08,15,05,04,14.60
2017,08,15,05,05,14.50
2017,08,15,05,06,14.50
2017,08,15,05,07,14.50
2017,08,15,05,08,14.50
2017,08,15,05,09,14.50
2017,08,15,05,10,14.50
2017,08,15,05,11,14.50
2017,08,15,05,12,14.50
2017,08,15,05,13,14.40
2017,08,15,05,14,14.50
2017,08,15,05,15,14.50
2017,08,15,05,16,14.50
2017,08,15,05,17,14.40
2017,08,15,05,18,14.40
2017,08,15,05,19,14.40
2017,08,15,05,20,14.40
2017,08,15,05,21,14.40
2017,08,15,05,22,14.40
2017,08,15,05,23,14.40
2017,08,15,05,24,14.40
2017,08,15,05,25,14.40
2017,08,15,05,26,14.40
2017,08,15,05,27,14.40
2017,08,15,05,28,14.40
2017,08,15,05,29,14.30
2017,08,15,05,30,14.30
2017,08,15,05,31,14.30
2017,08,15,05,32,14.30
2017,08,15,05,33,14.30
2017,08,15,05,34,14.30
2017,08,15,05,35,14.30
2017,08,15,05,36,14.30
2017,08,15,05,37,14.30
2017,08,15,05,38,14.30
2017,08,15,05,39,14.20
2017,08,15,05,40,14.20
2017,08,15,05,41,14.20
2017,08,15,05,42,14.20
2017,08,15,05,43,14.30
2017,08,15,05,44,14.20
2017,08,15,05,45,14.20
2017,08,15,05,46,14.20
2017,08,15,05,47,14.20
2017,08,15,05,48,14.20
2017,08,15,05,49,14.20
2017,08,15,05,50,14.20
2017,08,15,05,51,14.20
2017,08,15,05,52,14.20
2017,08,15,05,53,14.20
2017,08,15,05,54,14.20
2017,08,15,05,55,14.20
2017,08,15,05,56,14.20
2017,08,15,05,57,14.10
2017,08,15,05,58,14.10
2017,08,15,05,59,14.10
2017,08,15,06,00,14.10
2017,08,15,06,01,14.10
2017,08,15,06,02,14.10
2017,08,15,06,03,14.00
2017,08,15,06,04,14.00
2017,08,15,06,05,14.00
2017,08,15,06,06,14.00
2017,08,15,06,07,13.90
2017,08,15,06,08,13.90
2017,08,15,06,09,13.90
2017,08,15,06,10,13.90
2017,08,15,06,11,13.90
2017,08,15,06,12,13.80
2017,08,15,06,13,13.80
2017,08,15,06,14,13.80
2017,08,15,06,15,13.80
2017,08,15,06,16,13.80
2017,08,15,06,17,13.70
2017,08,15,06,18,13.70
2017,08,15,06,19,13.70
2017,08,15,06,20,13.70
2017,08,15,06,21,13.70
2017,08,15,06,22,13.70
2017,08,15,06,23,13.70
2017,08,15,06,24,13.70
2017,08,15,06,25,13.70
2017,08,15,06,26,13.70
2017,08,15,06,27,13.70
2017,08,15,06,28,13.70
2017,08,15,06,29,13.70
2017,08,15,06,30,13.70
2017,08,15,06,31,13.70
2017,08,15,06,32,13.70
2017,08,15,06,33,13.60
2017,08,15,06,34,13.60
2017,08,15,06,35,13.60
2017,08,15,06,36,13.70
2017,08,15,06,37,13.70
2017,08,15,06,38,13.70
2017,08,15,06,39,13.70
2017,08,15,06,40,13.70
2017,08,15,06,41,13.70
2017,08,15,06,42,13.70
2017,08,15,06,43,13.70
2017,08,15,06,44,13.70
2017,08,15,06,45,13.70
2017,08,15,06,46,13.70
2017,08,15,06,47,13.80
2017,08,15,06,48,13.80
2017,08,15,06,49,13.80
2017,08,15,06,50,13.80
2017,08,15,06,51,13.80
2017,08,15,06,52,13.80
2017,08,15,06,53,13.80
2017,08,15,06,54,13.80
2017,08,15,06,55,13.80
2017,08,15,06,56,13.80
2017,08,15,06,57,13.80
2017,08,15,06,58,13.80
2017,08,15,06,59,13.80
2017,08,15,07,00,13.80
2017,08,15,07,01,13.80
2017,08,15,07,02,13.80
2017,08,15,07,03,13.80
2017,08,15,07,04,13.80
2017,08,15,07,05,13.70
2017,08,15,07,06,13.70
2017,08,15,07,07,13.70
2017,08,15,07,08,13.70
2017,08,15,07,09,13.70
2017,08,15,07,10,13.70
2017,08,15,07,11,13.70
2017,08,15,07,12,13.70
2017,08,15,07,13,13.70
2017,08,15,07,14,13.70
2017,08,15,07,15,13.80
2017,08,15,07,16,13.80
2017,08,15,07,17,13.80
2017,08,15,07,18,13.80
2017,08,15,07,19,13.80
2017,08,15,07,20,13.80
2017,08,15,07,21,13.80
2017,08,15,07,22,13.80
2017,08,15,07,23,13.80
2017,08,15,07,24,13.80
2017,08,15,07,25,13.80
2017,08,15,07,26,13.80
2017,08,15,07,27,13.80
2017,08,15,07,28,13.80
2017,08,15,07,29,13.80
2017,08,15,07,30,13.80
2017,08,15,07,31,13.80
2017,08,15,07,32,13.80
2017,08,15,07,33,13.80
2017,08,15,07,34,13.90
2017,08,15,07,35,13.90
2017,08,15,07,36,13.90
2017,08,15,07,37,14.00
2017,08,15,07,38,14.00
2017,08,15,07,39,14.10
2017,08,15,07,40,14.10
2017,08,15,07,41,14.20
2017,08,15,07,42,14.20
2017,08,15,07,43,14.30
2017,08,15,07,44,14.40
2017,08,15,07,45,14.40
2017,08,15,07,46,14.50
2017,08,15,07,47,14.60
2017,08,15,07,48,14.60
2017,08,15,07,49,14.70
2017,08,15,07,50,14.70
2017,08,15,07,51,14.80
2017,08,15,07,52,14.80
2017,08,15,07,53,14.90
2017,08,15,07,54,14.90
2017,08,15,07,55,15.00
2017,08,15,07,56,15.10
2017,08,15,07,57,15.10
2017,08,15,07,58,15.10
2017,08,15,07,59,15.20
2017,08,15,08,00,15.20
2017,08,15,08,01,15.20
2017,08,15,08,02,15.30
2017,08,15,08,03,15.30
2017,08,15,08,04,15.30
2017,08,15,08,05,15.40
2017,08,15,08,06,15.40
2017,08,15,08,07,15.40
2017,08,15,08,08,15.50
2017,08,15,08,09,15.50
2017,08,15,08,10,15.60
2017,08,15,08,11,15.60
2017,08,15,08,12,15.70
2017,08,15,08,13,15.70
2017,08,15,08,14,15.70
2017,08,15,08,15,15.80
2017,08,15,08,16,15.80
2017,08,15,08,17,15.90
2017,08,15,08,18,15.90
2017,08,15,08,19,16.00
2017,08,15,08,20,16.10
2017,08,15,08,21,16.10
2017,08,15,08,22,16.20
2017,08,15,08,23,16.20
2017,08,15,08,24,16.30
2017,08,15,08,25,16.30
2017,08,15,08,26,16.30
2017,08,15,08,27,16.40
2017,08,15,08,28,16.50
2017,08,15,08,29,16.50
2017,08,15,08,30,16.60
2017,08,15,08,31,16.70
2017,08,15,08,32,16.70
2017,08,15,08,33,16.70
2017,08,15,08,34,16.70
2017,08,15,08,35,16.70
2017,08,15,08,36,16.80
2017,08,15,08,37,16.80
2017,08,15,08,38,16.80
2017,08,15,08,39,16.80
2017,08,15,08,40,16.80
2017,08,15,08,41,16.80
2017,08,15,08,42,16.80
2017,08,15,08,43,16.80
2017,08,15,08,44,16.80
2017,08,15,08,45,16.80
2017,08,15,08,46,16.80
2017,08,15,08,47,16.80
2017,08,15,08,48,16.70
2017,08,15,08,49,16.70
2017,08,15,08,50,16.70
2017,08,15,08,51,16.70
2017,08,15,08,52,16.70
2017,08,15,08,53,16.70
2017,08,15,08,54,16.70
2017,08,15,08,55,16.70
2017,08,15,08,56,16.70
2017,08,15,08,57,16.70
2017,08,15,08,58,16.70
2017,08,15,08,59,16.70
2017,08,15,09,00,16.70
2017,08,15,09,01,16.70
2017,08,15,09,02,16.70
2017,08,15,09,03,16.60
2017,08,15,09,04,16.60
2017,08,15,09,05,16.60
2017,08,15,09,06,16.60
2017,08,15,09,07,16.60
2017,08,15,09,08,16.60
2017,08,15,09,09,16.70
2017,08,15,09,10,16.70
2017,08,15,09,11,16.70
2017,08,15,09,12,16.60
2017,08,15,09,13,16.50
2017,08,15,09,14,16.50
2017,08,15,09,15,16.50
2017,08,15,09,16,16.50
2017,08,15,09,17,16.50
2017,08,15,09,18,16.60
2017,08,15,09,19,16.60
2017,08,15,09,20,16.60
2017,08,15,09,21,16.60
2017,08,15,09,22,16.60
2017,08,15,09,23,16.60
2017,08,15,09,24,16.60
2017,08,15,09,25,16.60
2017,08,15,09,26,16.60
2017,08,15,09,27,16.60
2017,08,15,09,28,16.60
2017,08,15,09,29,16.60
2017,08,15,09,30,16.60
2017,08,15,09,31,16.60
2017,08,15,09,32,16.60
2017,08,15,09,33,16.60
2017,08,15,09,34,16.60
2017,08,15,09,35,16.60
2017,08,15,09,36,16.60
2017,08,15,09,37,16.70
2017,08,15,09,38,16.70
2017,08,15,09,39,16.80
2017,08,15,09,40,16.80
2017,08,15,09,41,16.90
2017,08,15,09,42,17.00
2017,08,15,09,43,17.00
2017,08,15,09,44,17.10
2017,08,15,09,45,17.10
2017,08,15,09,46,17.20
2017,08,15,09,47,17.30
2017,08,15,09,48,17.30
2017,08,15,09,49,17.30
2017,08,15,09,50,17.30
2017,08,15,09,51,17.40
2017,08,15,09,52,17.40
2017,08,15,09,53,17.40
2017,08,15,09,54,17.40
2017,08,15,09,55,17.50
2017,08,15,09,56,17.60
2017,08,15,09,57,17.60
2017,08,15,09,58,17.60
2017,08,15,09,59,17.60
2017,08,15,10,00,17.60
2017,08,15,10,01,17.60
2017,08,15,10,02,17.60
2017,08,15,10,03,17.70
2017,08,15,10,04,17.80
2017,08,15,10,05,17.80
2017,08,15,10,06,17.90
2017,08,15,10,07,17.90
2017,08,15,10,08,17.80
2017,08,15,10,09,17.80
2017,08,15,10,10,17.90
2017,08,15,10,11,18.00
2017,08,15,10,12,18.10
2017,08,15,10,13,18.30
2017,08,15,10,14,18.40
2017,08,15,10,15,18.40
2017,08,15,10,16,18.40
2017,08,15,10,17,18.50
2017,08,15,10,18,18.50
2017,08,15,10,19,18.40
2017,08,15,10,20,18.40
2017,08,15,10,21,18.40
2017,08,15,10,22,18.30
2017,08,15,10,23,18.30
2017,08,15,10,24,18.30
2017,08,15,10,25,18.30
2017,08,15,10,26,18.40
2017,08,15,10,27,18.40
2017,08,15,10,28,18.40
2017,08,15,10,29,18.40
2017,08,15,10,30,18.40
2017,08,15,10,31,18.40
2017,08,15,10,32,18.40
2017,08,15,10,33,18.50
2017,08,15,10,34,18.50
2017,08,15,10,35,18.60
2017,08,15,10,36,18.60
2017,08,15,10,37,18.60
2017,08,15,10,38,18.70
2017,08,15,10,39,18.80
2017,08,15,10,40,18.70
2017,08,15,10,41,18.60
2017,08,15,10,42,18.50
2017,08,15,10,43,18.40
2017,08,15,10,44,18.40
2017,08,15,10,45,18.40
2017,08,15,10,46,18.50
2017,08,15,10,47,18.60
2017,08,15,10,48,18.60
2017,08,15,10,49,18.70
2017,08,15,10,50,18.70
2017,08,15,10,51,18.70
2017,08,15,10,52,18.60
2017,08,15,10,53,18.50
2017,08,15,10,54,18.50
2017,08,15,10,55,18.40
2017,08,15,10,56,18.40
2017,08,15,10,57,18.40
2017,08,15,10,58,18.40
2017,08,15,10,59,18.40
2017,08,15,11,00,18.40
2017,08,15,11,01,18.40
2017,08,15,11,02,18.40
2017,08,15,11,03,18.40
2017,08,15,11,04,18.40
2017,08,15,11,05,18.50
2017,08,15,11,06,18.50
2017,08,15,11,07,18.60
2017,08,15,11,08,18.60
2017,08,15,11,09,18.50
2017,08,15,11,10,18.50
2017,08,15,11,11,18.50
2017,08,15,11,12,18.50
2017,08,15,11,13,18.50
2017,08,15,11,14,18.40
2017,08,15,11,15,18.30
2017,08,15,11,16,18.30
2017,08,15,11,17,18.20
2017,08,15,11,18,18.20
2017,08,15,11,19,18.30
2017,08,15,11,20,18.30
2017,08,15,11,21,18.30
2017,08,15,11,22,18.30
2017,08,15,11,23,18.30
2017,08,15,11,24,18.40
2017,08,15,11,25,18.60
2017,08,15,11,26,18.70
2017,08,15,11,27,18.80
2017,08,15,11,28,18.80
2017,08,15,11,29,18.80
2017,08,15,11,30,19.00
2017,08,15,11,31,19.00
2017,08,15,11,32,19.10
2017,08,15,11,33,19.10
2017,08,15,11,34,19.10
2017,08,15,11,35,19.10
2017,08,15,11,36,19.00
2017,08,15,11,37,19.00
2017,08,15,11,38,19.00
2017,08,15,11,39,19.10
2017,08,15,11,40,19.20
2017,08,15,11,41,19.20
2017,08,15,11,42,19.30
2017,08,15,11,43,19.40
2017,08,15,11,44,19.40
2017,08,15,11,45,19.40
2017,08,15,11,46,19.40
2017,08,15,11,47,19.40
2017,08,15,11,48,19.50
2017,08,15,11,49,19.50
2017,08,15,11,50,19.60
2017,08,15,11,51,19.60
2017,08,15,11,52,19.50
2017,08,15,11,53,19.50
2017,08,15,11,54,19.50
2017,08,15,11,55,19.60
2017,08,15,11,56,19.60
2017,08,15,11,57,19.70
2017,08,15,11,58,19.60
2017,08,15,11,59,19.50
2017,08,15,12,00,19.40
2017,08,15,12,01,19.40
2017,08,15,12,02,19.40
2017,08,15,12,03,19.40
2017,08,15,12,04,19.20
2017,08,15,12,05,19.10
2017,08,15,12,06,19.00
2017,08,15,12,07,18.90
2017,08,15,12,08,18.90
2017,08,15,12,09,18.80
2017,08,15,12,10,18.80
2017,08,15,12,11,18.90
2017,08,15,12,12,19.00
2017,08,15,12,13,19.10
2017,08,15,12,14,19.10
2017,08,15,12,15,19.10
2017,08,15,12,16,19.10
2017,08,15,12,17,19.00
2017,08,15,12,18,19.00
2017,08,15,12,19,19.10
2017,08,15,12,20,19.20
2017,08,15,12,21,19.40
2017,08,15,12,22,19.50
2017,08,15,12,23,19.50
2017,08,15,12,24,19.50
2017,08,15,12,25,19.50
2017,08,15,12,26,19.50
2017,08,15,12,27,19.50
2017,08,15,12,28,19.50
2017,08,15,12,29,19.50
2017,08,15,12,30,19.60
2017,08,15,12,31,19.60
2017,08,15,12,32,19.60
2017,08,15,12,33,19.60
2017,08,15,12,34,19.70
2017,08,15,12,35,19.80
2017,08,15,12,36,19.90
2017,08,15,12,37,19.90
2017,08,15,12,38,20.00
2017,08,15,12,39,20.00
2017,08,15,12,40,20.10
2017,08,15,12,41,20.10
2017,08,15,12,42,20.20
2017,08,15,12,43,20.20
2017,08,15,12,44,20.30
2017,08,15,12,45,20.30
2017,08,15,12,46,20.40
2017,08,15,12,47,20.60
2017,08,15,12,48,20.60
2017,08,15,12,49,20.60
2017,08,15,12,50,20.60
2017,08,15,12,51,20.50
2017,08,15,12,52,20.40
2017,08,15,12,53,20.30
2017,08,15,12,54,20.30
2017,08,15,12,55,20.20
2017,08,15,12,56,20.10
2017,08,15,12,57,20.10
2017,08,15,12,58,20.10
2017,08,15,12,59,20.10
2017,08,15,13,00,20.20
2017,08,15,13,01,20.20
2017,08,15,13,02,20.20
2017,08,15,13,03,20.20
2017,08,15,13,04,20.40
2017,08,15,13,05,20.50
2017,08,15,13,06,20.60
2017,08,15,13,07,20.70
2017,08,15,13,08,20.80
2017,08,15,13,09,20.80
2017,08,15,13,10,20.80
2017,08,15,13,11,20.90
2017,08,15,13,12,20.90
2017,08,15,13,13,21.00
2017,08,15,13,14,21.10
2017,08,15,13,15,21.10
2017,08,15,13,16,21.10
2017,08,15,13,17,21.10
2017,08,15,13,18,21.20
2017,08,15,13,19,21.20
2017,08,15,13,20,21.20
2017,08,15,13,21,21.10
2017,08,15,13,22,21.10
2017,08,15,13,23,21.10
2017,08,15,13,24,21.00
2017,08,15,13,25,21.10
2017,08,15,13,26,21.10
2017,08,15,13,27,21.20
2017,08,15,13,28,21.20
2017,08,15,13,29,21.20
2017,08,15,13,30,21.20
2017,08,15,13,31,21.20
2017,08,15,13,32,21.20
2017,08,15,13,33,21.20
2017,08,15,13,34,21.20
2017,08,15,13,35,21.10
2017,08,15,13,36,21.20
2017,08,15,13,37,21.20
2017,08,15,13,38,21.30
2017,08,15,13,39,21.40
2017,08,15,13,40,21.40
2017,08,15,13,41,21.30
2017,08,15,13,42,21.20
2017,08,15,13,43,21.10
2017,08,15,13,44,21.10
2017,08,15,13,45,21.10
2017,08,15,13,46,21.10
2017,08,15,13,47,20.90
2017,08,15,13,48,20.90
2017,08,15,13,49,21.00
2017,08,15,13,50,21.10
2017,08,15,13,51,21.20
2017,08,15,13,52,21.30
2017,08,15,13,53,21.30
2017,08,15,13,54,21.30
2017,08,15,13,55,21.30
2017,08,15,13,56,21.40
2017,08,15,13,57,21.30
2017,08,15,13,58,21.30
2017,08,15,13,59,21.40
2017,08,15,14,00,21.40
2017,08,15,14,01,21.50
2017,08,15,14,02,21.60
2017,08,15,14,03,21.60
2017,08,15,14,04,21.60
2017,08,15,14,05,21.60
2017,08,15,14,06,21.60
2017,08,15,14,07,21.60
2017,08,15,14,08,21.60
2017,08,15,14,09,21.60
2017,08,15,14,10,21.70
2017,08,15,14,11,21.80
2017,08,15,14,12,21.80
2017,08,15,14,13,22.00
2017,08,15,14,14,22.00
2017,08,15,14,15,22.20
2017,08,15,14,16,22.20
2017,08,15,14,17,22.30
2017,08,15,14,18,22.30
2017,08,15,14,19,22.30
2017,08,15,14,20,22.10
2017,08,15,14,21,22.10
2017,08,15,14,22,22.00
2017,08,15,14,23,22.00
2017,08,15,14,24,22.00
2017,08,15,14,25,22.10
2017,08,15,14,26,22.10
2017,08,15,14,27,22.10
2017,08,15,14,28,22.20
2017,08,15,14,29,22.20
2017,08,15,14,30,22.20
2017,08,15,14,31,22.20
2017,08,15,14,32,22.20
2017,08,15,14,33,22.10
2017,08,15,14,34,22.10
2017,08,15,14,35,22.00
2017,08,15,14,36,22.00
2017,08,15,14,37,22.00
2017,08,15,14,38,21.90
2017,08,15,14,39,21.90
2017,08,15,14,40,22.00
2017,08,15,14,41,22.00
2017,08,15,14,42,22.10
2017,08,15,14,43,22.20
2017,08,15,14,44,22.20
2017,08,15,14,45,22.30
2017,08,15,14,46,22.30
2017,08,15,14,47,22.40
2017,08,15,14,48,22.40
2017,08,15,14,49,22.40
2017,08,15,14,50,22.30
2017,08,15,14,51,22.30
2017,08,15,14,52,22.40
2017,08,15,14,53,22.40
2017,08,15,14,54,22.40
2017,08,15,14,55,22.40
2017,08,15,14,56,22.30
2017,08,15,14,57,22.20
2017,08,15,14,58,22.10
2017,08,15,14,59,22.20
2017,08,15,15,00,22.20
2017,08,15,15,01,22.30
2017,08,15,15,02,22.50
2017,08,15,15,03,22.60
2017,08,15,15,04,22.80
2017,08,15,15,05,22.80
2017,08,15,15,06,22.80
2017,08,15,15,07,22.90
2017,08,15,15,08,22.80
2017,08,15,15,09,22.70
2017,08,15,15,10,22.60
2017,08,15,15,11,22.60
2017,08,15,15,12,22.50
2017,08,15,15,13,22.50
2017,08,15,15,14,22.50
2017,08,15,15,15,22.60
2017,08,15,15,16,22.60
2017,08,15,15,17,22.50
2017,08,15,15,18,22.50
2017,08,15,15,19,22.40
2017,08,15,15,20,22.40
2017,08,15,15,21,22.50
2017,08,15,15,22,22.50
2017,08,15,15,23,22.60
2017,08,15,15,24,22.70
2017,08,15,15,25,22.70
2017,08,15,15,26,22.70
2017,08,15,15,27,22.60
2017,08,15,15,28,22.50
2017,08,15,15,29,22.50
2017,08,15,15,30,22.40
2017,08,15,15,31,22.50
2017,08,15,15,32,22.50
2017,08,15,15,33,22.50
2017,08,15,15,34,22.40
2017,08,15,15,35,22.40
2017,08,15,15,36,22.40
2017,08,15,15,37,22.40
2017,08,15,15,38,22.40
2017,08,15,15,39,22.20
2017,08,15,15,40,22.20
2017,08,15,15,41,22.10
2017,08,15,15,42,22.00
2017,08,15,15,43,21.90
2017,08,15,15,44,21.90
2017,08,15,15,45,21.90
2017,08,15,15,46,21.90
2017,08,15,15,47,21.90
2017,08,15,15,48,21.90
2017,08,15,15,49,21.70
2017,08,15,15,50,21.70
2017,08,15,15,51,21.70
2017,08,15,15,52,21.70
2017,08,15,15,53,21.80
2017,08,15,15,54,21.90
2017,08,15,15,55,22.00
2017,08,15,15,56,22.10
2017,08,15,15,57,22.10
2017,08,15,15,58,22.20
2017,08,15,15,59,22.20
2017,08,15,16,00,22.30
2017,08,15,16,01,22.30
2017,08,15,16,02,22.40
2017,08,15,16,03,22.40
2017,08,15,16,04,22.50
2017,08,15,16,05,22.50
2017,08,15,16,06,22.40
2017,08,15,16,07,22.40
2017,08,15,16,08,22.40
2017,08,15,16,09,22.40
2017,08,15,16,10,22.40
2017,08,15,16,11,22.30
2017,08,15,16,12,22.40
2017,08,15,16,13,22.40
2017,08,15,16,14,22.40
2017,08,15,16,15,22.40
2017,08,15,16,16,22.40
2017,08,15,16,17,22.40
2017,08,15,16,18,22.40
2017,08,15,16,19,22.40
2017,08,15,16,20,22.40
2017,08,15,16,21,22.40
2017,08,15,16,22,22.50
2017,08,15,16,23,22.60
2017,08,15,16,24,22.60
2017,08,15,16,25,22.60
2017,08,15,16,26,22.60
2017,08,15,16,27,22.50
2017,08,15,16,28,22.40
2017,08,15,16,29,22.40
2017,08,15,16,30,22.40
2017,08,15,16,31,22.40
2017,08,15,16,32,22.40
2017,08,15,16,33,22.50
2017,08,15,16,34,22.60
2017,08,15,16,35,22.70
2017,08,15,16,36,22.80
2017,08,15,16,37,22.80
2017,08,15,16,38,22.90
2017,08,15,16,39,22.90
2017,08,15,16,40,22.90
2017,08,15,16,41,23.00
2017,08,15,16,42,23.00
2017,08,15,16,43,23.10
2017,08,15,16,44,23.20
2017,08,15,16,45,23.20
2017,08,15,16,46,23.30
2017,08,15,16,47,23.20
2017,08,15,16,48,23.10
2017,08,15,16,49,23.10
2017,08,15,16,50,23.10
2017,08,15,16,51,23.20
2017,08,15,16,52,23.20
2017,08,15,16,53,23.20
2017,08,15,16,54,23.20
2017,08,15,16,55,23.20
2017,08,15,16,56,23.20
2017,08,15,16,57,23.30
2017,08,15,16,58,23.30
2017,08,15,16,59,23.30
2017,08,15,17,00,23.20
2017,08,15,17,01,23.20
2017,08,15,17,02,23.30
2017,08,15,17,03,23.30
2017,08,15,17,04,23.40
2017,08,15,17,05,23.50
2017,08,15,17,06,23.50
2017,08,15,17,07,23.60
2017,08,15,17,08,23.60
2017,08,15,17,09,23.60
2017,08,15,17,10,23.60
2017,08,15,17,11,23.60
2017,08,15,17,12,23.60
2017,08,15,17,13,23.50
2017,08,15,17,14,23.50
2017,08,15,17,15,23.50
2017,08,15,17,16,23.50
2017,08,15,17,17,23.60
2017,08,15,17,18,23.60
2017,08,15,17,19,23.60